Showing default

O3B MPOWER F7, 62362

Orbit data source: Space-Track

O3B MPOWER F7, 62362 is a payload satellite owned by O3B SES (LU) that was launched on Tue, 17 Dec 2024 UTC via an FALCON 9 launch vehicle from the Air Force Eastern Test Range (AFETR). Payload-class satellites include a variety of spacecraft equipped with specific instruments for various scientific and technological missions. These include communications satellites like Starlink; space stations such as the ISS; scientific satellites like the Hubble; Earth observation satellites from companies like Planet Labs, Umbra, and HawkEye 360; GPS; miniature CubeSats for education and research; and military/defense satellites.

Loading next visibility...
Identifier
62362, 2024-244A
Orbit
Active
Country
Flag of LULU / SES
Related business
Manufacturer
Boeing/ES
Mission
Operational Commercial Communications
Bus & Motor
702X, PPS5000
Mass
1,700 kg wet, 1,700 kg dry
Launch date (UTC)
2024-12-17 (2 years ago)
Launch vehicle
FALCON 9
Launch site
Air Force Eastern Test Range (AFETR)
Object type
Payload
Rocket body
Debris
Shape & HBR
Box + 2 Pan, 13.5 m
Radar Cross Section
27.396 m², Large (>1 m²)

Expand to show TLE details & history
Last TLE update: 20 hours ago

TLE from 20 hours ago
0 O3B MPOWER F7
1 62362U 24244A   26171.07398353 -.00000024  00000-0  00000+0 0  9996
2 62362   0.0677 347.8113 0006032  97.7220 274.5333  5.00115255 26678
Epoch: 2026-06-20T01:46Z
TLE epoch observation values (Epoch: 2026-06-20T01:46:32.176Z)
Latitude
0.01431°
Longitude
65.07211°
Altitude
8,063.691 km
Speed
5.255 km/s
True Right ascension
00h 00m 00s
True Declination
0° 00' 51"
Sunlit
Object was in daylight at epoch
Visualization orbit readout
Latitude
Unknown
Longitude
Unknown
Altitude
Unknown
Speed
Unknown
Apparent Right ascension
Unknown
Apparent Declination
Unknown
Sunlit
N/A
Visualization observer readout
Local Sidereal Time
08:32:42
Azimuth
Unknown
Elevation
Unknown
Doppler factor
Unknown
Orbital elements
Apogee altitude
8,077.668 km
Perigee altitude
8,060.239 km
Semi-major axis
14,447.09 km
Eccentricity
0.0006
Inclination
0.0677°
RAAN
347.8113°
Arg. of periapsis
97.722°
True anomaly
274.46439°
Mean anomaly
274.5333°
Eccentric anomaly
274.49885°
Mean motion
1.24989 °/min
Orbital period
288.02 mins
BSTAR
0
Loading maneuver chart data...
Computing Atmospheric mass density...
Loading historical data...
Loading historical data...
Loading historical data...
Loading historical data...
Loading historical data...
Loading historical data...
Loading historical data...
Other satellites on launch #244 in the year 2024 (2024-12-17 UTC)

Documentation

Showing up to 5 results
|